Regional Weather Roundup
Issued by NWS Nashville, TN

Home | Current Version | Previous Version | Text Only | Print | Product List | Glossary On
Versions: 1 2 3 4 5 6 7 8 9 10 11 12 13 14 15 16 17 18 19 20 21 22 23 24 25 26 27 28 29 30 31 32 33 34 35 36 37 38 39 40 41 42 43 44 45 46 47 48 49 50
287
ASUS44 KOHX 260610
RWROHX
MIDDLE TENNESSEE HOURLY WEATHER ROUNDUP
NATIONAL WEATHER SERVICE NASHVILLE TN
100 AM CDT TUE JUL 26 2016

NOTE: "FAIR" INDICATES FEW OR NO CLOUDS BELOW 12,000 FEET WITH
NO SIGNIFICANT WEATHER AND/OR OBSTRUCTIONS TO VISIBILITY.

* THESE REPORTS ARE NOT UNDER NWS QUALITY CONTROL AND MAY NOT
  REPORT WEATHER SUCH AS PRECIPITATION AND FOG.


TNZ005>011-023>034-057-059-062>066-078-080-260700
...NORTHERN MIDDLE TENNESSEE...

CITY           SKY/WX    TMP DP  RH WIND       PRES   REMARKS
CLARKSVILLE    CLEAR     73  71  93 CALM      30.01F
CROSSVILLE     CLOUDY    76  71  85 CALM      30.10R
NASHVILLE      CLEAR     79  72  79 N5        30.03R
SMYRNA         CLEAR     80  75  84 NE5       30.03R
SPARTA         CLEAR     75  73  94 CALM      30.03R
$$
TNZ056-058-060-061-075>077-079-093>097-260700
...SOUTHERN MIDDLE TENNESSEE...

CITY           SKY/WX    TMP DP  RH WIND       PRES   REMARKS
COLUMBIA       CLEAR    N/A N/A N/A CALM      30.01S
FAYETTEVILLE   PTCLDY    81  72  74 S8        30.05R
MCMINNVILLE    CLEAR     75  75 100 CALM      30.04S
SHELBYVILLE    CLEAR     77  75  94 CALM      30.03S
TULLAHOMA      CLEAR     73  73 100 CALM      30.06R
WINCHESTER     MOCLDY    75  72  88 SE6       30.05R
$$


...KEY TO REMARKS...
VSB - VISIBILITY IN MILES
WCI - WIND CHILL INDEX
HX  - HEAT INDEX





USA.gov is the U.S. government's official web portal to all federal, state and local government web resources and services.